Regional Weather Roundup
Issued by NWS State College, PA

Home | Current Version | Previous Version | Text Only | Print | Product List | Glossary Off
Versions: 1 2 3 4 5 6 7 8 9 10 11 12 13 14 15 16 17 18 19 20 21 22 23 24 25 26 27 28 29 30 31 32 33 34 35 36 37 38 39 40 41 42 43 44 45 46 47 48 49 50

974
ASUS41 KCTP 090910
RWRCTP

REGIONAL WEATHER ROUNDUP
NATIONAL WEATHER SERVICE STATE COLLEGE PA
400 AM EST TUE FEB 09 2016

Note: "fair" indicates few or no clouds below 12,000 feet with no
significant weather and/or obstructions to visibility.

* = STATION THAT DOES NOT REPORT PRECIPITATION /E.G. RAIN...SNOW...ETC/
    THUNDER OR FOG.

PAZ002>004-007>009-013>016-020>023-029>032-091000-
WESTERN PENNSYLVANIA

CITY           SKY/WX    TMP DP  RH WIND       PRES   REMARKS
ERIE           CLOUDY    34  30  85 SW6       29.52F
MEADVILLE      LGT SNOW  32  28  85 SW3       29.49F FOG
FRANKLIN*      CLOUDY    30  27  86 SW3       29.51F
NEW CASTLE     CLOUDY    32  30  92 CALM      29.53F
BEAVER COUNTY  NOT AVBL
BUTLER*        CLOUDY    30  28  93 CALM      29.54F
PITTSBURGH INT LGT SNOW  31  30  96 CALM      29.51F FOG
PITTSBURGH     CLOUDY    32  29  88 S3        29.51F FOG
INDIANA*       CLOUDY    32  32 100 CALM      29.54F
LATROBE        CLOUDY    32  32 100 CALM      29.53F
WASHINGTON CO* MOCLDY    28  28 100 CALM      29.52F
$$

PAZ004>006-010>012-017>019-024>028-033>037-041-042-045-046-049>053-091000-
CENTRAL PENNSYLVANIA

CITY           SKY/WX    TMP DP  RH WIND       PRES   REMARKS
BRADFORD       LGT SNOW  30  27  88 CALM      29.46F FOG
DUBOIS         CLOUDY    30  27  88 W5        29.48F
CLEARFIELD     CLOUDY    31  28  89 CALM      29.51F FOG
JOHNSTOWN      CLOUDY    29  24  82 CALM      29.46F
ALTOONA        CLOUDY    32  29  88 CALM      29.51F FOG
STATE COLLEGE  CLOUDY    33  30  88 CALM      29.52F
WILLIAMSPORT   CLOUDY    32  27  81 NE17      29.57F
SELINSGROVE    CLOUDY    32  27  81 SE3       29.59F
FT INDIANTOWN  LGT SNOW  29  29 100 NE6       29.60F FOG
CAPITAL CITY   LGT SNOW  33  29  85 E12       29.59F FOG
HARRISBURG     LGT SNOW  32  29  88 E10       29.59F
YORK           CLOUDY    33  31  92 E7        29.57F
$$

PAZ038>040-043-044-047-048-054-055-060>062-067>071-091000-
EASTERN PENNSYLVANIA

CITY           SKY/WX    TMP DP  RH WIND       PRES   REMARKS
SCRANTON       LGT SNOW  28  21  75 E3        29.59F
MOUNT POCONO   LGT SNOW  22  20  92 SE10      29.55F FOG     WCI  11
ALLENTOWN      LGT SNOW  30  25  80 NE8       29.64F
QUAKERTOWN*    CLOUDY    28  27  93 E7        29.63F
READING        CLOUDY    31  26  82 E8        29.61F
LANCASTER      CLOUDY    30  28  92 E7        29.60F
COATESVILLE    CLOUDY    30  30 100 E10       29.60F
POTTSTOWN      CLOUDY    29  26  89 E6        29.63F
BLUE BELL        N/A     30  28  93 NE6       29.62F
DOYLESTOWN     CLOUDY    27  25  92 NE5       29.62F
WILLOW GROVE   NOT AVBL
NORTH PHILA    CLOUDY    32  27  81 E13       29.65F
PHILADELPHIA   CLOUDY    32  27  81 NE9       29.64F
$$




USA.gov is the U.S. government's official web portal to all federal, state and local government web resources and services.